| time (UTC) | temp C | wind direction | speed KPH | gust KPH | rain 1hr cm | rain 24hr cm | rain mn cm | humidity % | barometer mb |
| 20260503050007 | 15 | 66 | 0.0 | 1.6 | 0.00 | 0.00 | 0.00 | 51 | 1008.1 |
| 20260503044507 | 16 | 66 | 0.0 | 1.6 | 0.00 | 0.00 | 0.00 | 51 | 1008.1 |
| 20260503043007 | 16 | 66 | 0.0 | 1.6 | 0.00 | 0.00 | 0.00 | 48 | 1008.1 |
| 20260503041506 | 17 | 66 | 0.0 | 1.6 | 0.00 | 0.00 | 0.00 | 44 | 1007.8 |
| 20260503040010 | 18 | 66 | 0.0 | 0.0 | 0.00 | 0.00 | 0.00 | 43 | 1007.7 |
| 20260503034503 | 19 | 66 | 0.0 | 0.0 | 0.00 | 0.00 | 0.00 | 39 | 1007.6 |
| 20260503033003 | 20 | 66 | 0.0 | 0.0 | 0.00 | 0.00 | 0.00 | 36 | 1007.4 |
| 20260503031501 | 21 | 66 | 0.0 | 3.2 | 0.00 | 0.00 | 0.00 | 33 | 1007.1 |
| 20260503030108 | 21 | 66 | 0.0 | 4.8 | 0.00 | 0.00 | 0.00 | 33 | 1007.0 |
| 20260503024603 | 21 | 66 | 1.6 | 6.4 | 0.00 | 0.00 | 0.00 | 32 | 1007.0 |
| 20260503023058 | 22 | 66 | 1.6 | 4.8 | 0.00 | 0.00 | 0.00 | 31 | 1007.0 |
| 20260503021609 | 22 | 66 | 1.6 | 6.4 | 0.00 | 0.00 | 0.00 | 31 | 1006.8 |
| 20260503014555 | 23 | 66 | 1.6 | 9.7 | 0.00 | 0.00 | 0.00 | 30 | 1006.9 |
| 20260503013053 | 23 | 66 | 4.8 | 9.7 | 0.00 | 0.00 | 0.00 | 30 | 1007.0 |
| 20260503011603 | 23 | 66 | 3.2 | 8.0 | 0.00 | 0.00 | 0.00 | 30 | 1007.1 |
| 20260503010020 | 24 | 66 | 1.6 | 8.0 | 0.00 | 0.00 | 0.00 | 27 | 1007.2 |
| 20260503004521 | 25 | 67 | 1.6 | 8.0 | 0.00 | 0.00 | 0.00 | 28 | 1007.2 |
| 20260503003015 | 25 | 67 | 1.6 | 6.4 | 0.00 | 0.00 | 0.00 | 29 | 1007.2 |
| 20260503001515 | 26 | 66 | 0.0 | 8.0 | 0.00 | 0.00 | 0.00 | 25 | 1007.3 |
| 20260503000013 | 26 | 67 | 1.6 | 6.4 | 0.00 | 0.00 | 0.00 | 26 | 1007.3 |
| 20260502234529 | 26 | 66 | 1.6 | 12.9 | 0.00 | 0.00 | 0.00 | 26 | 1007.5 |
| 20260502233009 | 26 | 69 | 3.2 | 12.9 | 0.00 | 0.00 | 0.00 | 25 | 1007.6 |
| 20260502231507 | 26 | 69 | 0.0 | 4.8 | 0.00 | 0.00 | 0.00 | 21 | 1007.7 |
| 20260502230006 | 27 | 69 | 3.2 | 8.0 | 0.00 | 0.00 | 0.00 | 18 | 1007.8 |
| 20260502224503 | 27 | 71 | 1.6 | 8.0 | 0.00 | 0.00 | 0.00 | 24 | 1008.0 |
| 20260502223002 | 27 | 74 | 3.2 | 9.7 | 0.00 | 0.00 | 0.00 | 22 | 1008.2 |
| 20260502221604 | 27 | 74 | 0.0 | 6.4 | 0.00 | 0.00 | 0.00 | 26 | 1008.3 |
| 20260502220142 | 27 | 74 | 0.0 | 6.4 | 0.00 | 0.00 | 0.00 | 16 | 1008.5 |
| 20260502214555 | 27 | 74 | 1.6 | 4.8 | 0.00 | 0.00 | 0.00 | 18 | 1008.8 |
| 20260502213056 | 27 | 74 | 3.2 | 9.7 | 0.00 | 0.00 | 0.00 | 16 | 1009.0 |
| 20260502211547 | 26 | 88 | 1.6 | 9.7 | 0.00 | 0.00 | 0.00 | 27 | 1009.3 |
| 20260502210045 | 26 | 94 | 3.2 | 12.9 | 0.00 | 0.00 | 0.00 | 23 | 1009.5 |
| 20260502204542 | 26 | 100 | 1.6 | 9.7 | 0.00 | 0.00 | 0.00 | 25 | 1009.8 |
| 20260502203057 | 26 | 107 | 4.8 | 11.3 | 0.00 | 0.00 | 0.00 | 27 | 1009.9 |
| 20260502201508 | 26 | 109 | 1.6 | 6.4 | 0.00 | 0.00 | 0.00 | 25 | 1010.0 |
| 20260502200005 | 26 | 107 | 3.2 | 9.7 | 0.00 | 0.00 | 0.00 | 24 | 1010.3 |
| 20260502194603 | 26 | 111 | 3.2 | 6.4 | 0.00 | 0.00 | 0.00 | 27 | 1010.5 |
| 20260502193056 | 25 | 110 | 4.8 | 11.3 | 0.00 | 0.00 | 0.00 | 30 | 1010.8 |
| 20260502191607 | 24 | 114 | 1.6 | 11.3 | 0.00 | 0.00 | 0.00 | 27 | 1011.0 |
| 20260502190104 | 23 | 113 | 1.6 | 9.7 | 0.00 | 0.00 | 0.00 | 30 | 1011.2 |
| 20260502184519 | 23 | 113 | 0.0 | 4.8 | 0.00 | 0.00 | 0.00 | 31 | 1011.5 |
| 20260502183013 | 22 | 113 | 1.6 | 6.4 | 0.00 | 0.00 | 0.00 | 30 | 1011.9 |
| 20260502181539 | 21 | 113 | 1.6 | 6.4 | 0.00 | 0.00 | 0.00 | 29 | 1012.1 |
| 20260502163103 | 17 | 128 | 6.4 | 17.7 | 0.00 | 0.00 | 0.00 | 34 | 1013.0 |
| 20260502161512 | 17 | 117 | 6.4 | 14.5 | 0.00 | 0.00 | 0.00 | 34 | 1013.1 |
| 20260502151632 | 14 | 90 | 8.0 | 17.7 | 0.00 | 0.00 | 0.00 | 38 | 1012.9 |
| 20260502123032 | 6 | 71 | 0.0 | 0.0 | 0.00 | 0.00 | 0.00 | 75 | 1012.3 |
| 20260502121530 | 6 | 71 | 0.0 | 0.0 | 0.00 | 0.00 | 0.00 | 71 | 1012.3 |
| 20260502114559 | 6 | 71 | 0.0 | 3.2 | 0.00 | 0.00 | 0.00 | 68 | 1012.1 |
| 20260502113057 | 6 | 71 | 0.0 | 1.6 | 0.00 | 0.00 | 0.00 | 71 | 1012.2 |
| 20260502111553 | 6 | 71 | 0.0 | 0.0 | 0.00 | 0.00 | 0.00 | 70 | 1012.2 |
| 20260502110051 | 7 | 71 | 0.0 | 0.0 | 0.00 | 0.00 | 0.00 | 69 | 1012.2 |
| 20260502104548 | 7 | 71 | 1.6 | 3.2 | 0.00 | 0.00 | 0.00 | 68 | 1012.2 |
| 20260502103045 | 7 | 71 | 0.0 | 3.2 | 0.00 | 0.00 | 0.00 | 67 | 1012.1 |
| 20260502101541 | 8 | 71 | 0.0 | 1.6 | 0.00 | 0.00 | 0.00 | 62 | 1012.1 |
| 20260502091503 | 10 | 71 | 1.6 | 4.8 | 0.00 | 0.00 | 0.00 | 54 | 1012.0 |
| 20260502070051 | 10 | 71 | 0.0 | 3.2 | 0.00 | 0.00 | 0.00 | 61 | 1012.3 |
| 20260502064546 | 10 | 71 | 0.0 | 3.2 | 0.00 | 0.00 | 0.00 | 59 | 1012.3 |
| 20260502063009 | 11 | 71 | 0.0 | 1.6 | 0.00 | 0.00 | 0.00 | 60 | 1012.4 |
| 20260502061507 | 11 | 71 | 0.0 | 1.6 | 0.00 | 0.00 | 0.00 | 60 | 1012.3 |
| 20260502060001 | 11 | 71 | 0.0 | 0.0 | 0.00 | 0.00 | 0.00 | 58 | 1012.3 |
| 20260502054501 | 12 | 71 | 0.0 | 1.6 | 0.00 | 0.00 | 0.00 | 56 | 1012.4 |
| 20260502053001 | 13 | 71 | 0.0 | 1.6 | 0.00 | 0.00 | 0.00 | 51 | 1012.3 |
| 20260502051603 | 13 | 71 | 0.0 | 0.0 | 0.00 | 0.00 | 0.00 | 49 | 1012.3 |